Location: Eschertshofen
(49.3064°N, 11.5756°E)
Time: 18:06:43
(UTC+00:00)

Iridium 26 - Pass Details

Date: 03 October 2021
Orbit: 772 x 775 km, 86.4° (Epoch: 21 October)

Event Time Altitude Azimuth Distance (km) Brightness Sun altitude
Exits shadow 17:59:34 11° 61° (ENE) 2,292 7.5 -12.5°
Drops below altitude 10° 18:00:00 10° 56° (NE) 2,329 7.6 -12.6°
Sets 18:04:18 0° 22° (NNE) 3,263 8.6 -13.3°
